Location: Ch�risy
(50.2331°N, 2.9131°E)
Time: 02:00:55
(UTC+00:00)

Cosmos 1606 Rocket - Pass Details

Date: 17 January 2021
Orbit: 604 x 631 km, 82.5° (Epoch: 28 February)

Event Time Altitude Azimuth Distance (km) Brightness Sun altitude
Rises 17:36:21 0° 352° (N) 2,885 6.9 -12.3°
Reaches altitude 10° 17:38:36 10° 355° (N) 1,980 6.0 -12.6°
Maximum altitude 17:42:58 65° 78° (ENE) 680 3.5 -13.3°
Drops below altitude 10° 17:47:19 10° 161° (SSE) 1,980 6.1 -13.9°
Sets 17:49:33 0° 164° (SSE) 2,885 7.0 -14.3°
